Regional Weather Roundup
Issued by NWS San Angelo, TX

Home | Current Version | Previous Version | Text Only | Print | Product List | Glossary On
Versions: 1 2 3 4 5 6 7 8 9 10 11 12 13 14 15 16 17 18 19 20 21 22 23 24 25 26 27 28 29 30 31 32 33 34 35 36 37 38 39 40 41 42 43 44 45 46 47 48 49 50
000
ASUS44 KSJT 291010
RWRSJT
WEST CENTRAL TEXAS REGIONAL WEATHER ROUNDUP
NATIONAL WEATHER SERVICE SAN ANGELO TX
400 AM CST THU JAN 29 2015

NOTE: "FAIR" INDICATES FEW OR NO CLOUDS BELOW 12,000 FEET WITH NO
SIGNIFICANT WEATHER AND/OR OBSTRUCTIONS TO VISIBILITY.

TXZ049-054-064>066-071>073-076>078-098-099-113-114-127-128-139-140-
154-155-168>170-291100
...LOCATIONS ACROSS WEST CENTRAL TEXAS...

CITY           SKY/WX    TMP DP  RH WIND       PRES   REMARKS
SAN ANGELO     PTCLDY    47  41  80 W3        30.11S
ABILENE        PTCLDY    51  42  71 S8        30.14S
DYESS AFB      PTCLDY    51  44  77 SW1       30.13S
JUNCTION       PTCLDY    43  38  82 W5        30.13S
SWEETWATER     MOCLDY    61  41  47 W5        30.19S
BROWNWOOD      MOCLDY    46  39  76 CALM      30.15R
COLEMAN        MOSUNNY   51  43  76 CALM      30.16R
SONORA         MOCLDY    41  37  87 N3        30.17S
OZONA          FAIR      43  36  75 CALM      30.16S
BRADY          MOCLDY    57  39  51 SW7       30.12S
$$

TEXAS PANHANDLE/OKLAHOMA PANHANDLE

CITY           SKY/WX    TMP DP  RH WIND       PRES   REMARKS
AMARILLO       CLOUDY    44  34  67 N15       30.25S WCI  37
BORGER         CLOUDY    47  33  58 N9        30.28R
CANADIAN       MOCLDY    47  36  66 N6        30.25R
DALHART        MOCLDY    44  33  65 N13       30.32R WCI  38
DUMAS          CLOUDY    39  33  78 N15       30.29R WCI  31
GUYMON         NOT AVBL
HEREFORD       MOSUNNY   44  37  75 NE12      30.26R WCI  38
PAMPA          CLOUDY    42  34  74 N10       30.26S WCI  36
PERRYTON         N/A     39  33  76 NW12      30.28R WCI  32
$$

SOUTHERN PANHANDLE/SOUTH PLAINS/ROLLING PLAINS

CITY           SKY/WX    TMP DP  RH WIND       PRES   REMARKS
LUBBOCK        PTCLDY    45  34  65 NE10      30.20R WCI  40
SNYDER         PTCLDY   N/A N/A N/A NE3       30.16S
CHILDRESS      CLEAR    N/A N/A N/A N14       30.19R
SEMINOLE       SUNNY     41  36  81 NW6       30.17F WCI  37
$$

PERMIAN BASIN

CITY           SKY/WX    TMP DP  RH WIND       PRES   REMARKS
MIDLAND        CLEAR     46  42  86 N8        30.14R
ODESSA         CLEAR     48  40  73 N8        30.15R
WINK           CLEAR     44  38  79 N8        30.13R WCI  39
$$

FAR WEST/SOUTHWEST MOUNTAINS/TRANS PECOS

CITY           SKY/WX    TMP DP  RH WIND       PRES   REMARKS
ALPINE         SUNNY     45  41  85 SW7       30.25S
DRYDEN           N/A     56  40  55 N9        30.10R
EL PASO        MOCLDY    45  37  73 NE5       30.18S
FORT STOCKTON  CLEAR     55  46  71 SW9       30.13R
GUADALUPE PASS PTCLDY    54  33  45 SW6       30.24R
MARFA          PTCLDY    39  36  87 N9        30.23S WCI  33
PECOS          SUNNY     42  39  90 W3        30.15R
$$

DALLAS/FORT WORTH METROPLEX

CITY           SKY/WX    TMP DP  RH WIND       PRES   REMARKS
DFW AIRPORT    MOCLDY    60  39  45 SW6       30.07R
FTW MEACHAM    PTCLDY    61  40  45 W3        30.06S
DAL-EXECUTIVE  PTCLDY    61  41  47 SW7       30.06F
GRAND PRAIRIE  PTCLDY    56  44  63 S8        30.08F
ADDISON        PTCLDY    61  41  47 SW3       30.09R
MESQUITE       MOSUNNY   56  44  63 S10       30.08S
LANCASTER      MOSUNNY   53  42  68 SE3       30.09S
$$

NORTH CENTRAL TEXAS

CITY           SKY/WX    TMP DP  RH WIND       PRES   REMARKS
SHRMAN/DENISON MOSUNNY   51  44  76 W5        30.08R
GAINESVILLE    CLEAR     56  40  54 NW8       30.11R
BRIDGEPORT     MOSUNNY   55  43  64 SW5       30.11R
DENTON         PTCLDY    50  40  68 NW5       30.07R
WAXAHACHIE     MOSUNNY   58  45  62 SW7       30.10S
GRANBURY       SUNNY     50  41  69 S5        30.10S
$$

WESTERN NORTH TEXAS

CITY           SKY/WX    TMP DP  RH WIND       PRES   REMARKS
WICHITA FALLS  CLEAR     48  37  65 N13       30.11R
VERNON         SUNNY     54  30  41 N9        30.15R
BRECKENRIDGE   SUNNY     55  42  62 CALM      30.11R
COMANCHE       CLEAR     56  41  58 W7        30.13F
$$

CENTRAL AND SOUTH CENTRAL TEXAS

CITY           SKY/WX    TMP DP  RH WIND       PRES   REMARKS
AUSTIN/BERGSTM PTCLDY    46  46 100 CALM      30.14R
WACO           CLEAR     50  44  80 S7        30.10F
HILLSBORO      SUNNY     51  43  73 S6        30.11R
TEMPLE         CLEAR     50  43  76 S5        30.11R
KILLEEN-GRAY   CLEAR     56  48  75 NE2       30.12R
FORT HOOD      CLEAR     55  47  76 S6        30.11S
GEORGETOWN     CLEAR     54  50  87 SW7       30.12R
LAGO VISTA     FAIR      60  53  77 SW8       30.13S
SAN MARCOS     CLOUDY    54  52  94 SW8       30.14S VSB 1/4
NEW BRAUNFELS  FOG       53  51  93 SW3       30.13S VSB 1/4
RANDOLPH AFB   MOCLDY    55  55 100 SW5       30.14S
SAN ANTONIO    MOCLDY    53  51  93 CALM      30.14F
STINSON        CLOUDY    52  51  97 CALM      30.12S
PLEASANTON     NOT AVBL
LA GRANGE      CLOUDY    62  61  96 S6        30.13S
GIDDINGS       CLOUDY    59  58  96 SW9       30.18S
$$

EAST TEXAS

CITY           SKY/WX    TMP DP  RH WIND       PRES   REMARKS
PARIS          PTCLDY    54  41  62 SW7       30.06S
CLARKSVILLE    NOT AVBL
TYLER          CLEAR     55  46  71 SW9       30.11R
LONGVIEW       CLEAR     56  48  74 SW9       30.10R
PALESTINE      SUNNY     55  54  94 S7        30.14S
NACOGDOCHES    CLOUDY    55  54  94 SW6       30.15S
$$

TEXAS HILL COUNTRY AND EDWARDS PLATEAU

CITY           SKY/WX    TMP DP  RH WIND       PRES   REMARKS
LLANO          MOSUNNY   46  39  76 CALM      30.15S
HORSESHOE BAY  FAIR      60  49  67 W3        30.12S
KERRVILLE      CLEAR     47  44  89 CALM      30.15S
FREDERICKSBRG  CLEAR     51  47  87 CALM      30.14S
ROCKSPRINGS    NOT AVBL
HONDO          CLEAR     45  43  93 N7        30.15S
UVALDE         SUNNY     50  46  86 NE5       30.13S
DEL RIO        CLEAR     56  43  61 E9        30.09S
$$

SOUTHEAST TEXAS

CITY           SKY/WX    TMP DP  RH WIND       PRES   REMARKS
COLLEGE STN    CLOUDY    59  57  93 S9        30.14S
CALDWELL       MOSUNNY   55  55 100 S6        30.16S
CROCKETT       MOSUNNY   54  54 100 SW3       30.17S FOG
BRENHAM        CLOUDY    62  60  95 S5        30.15S
HUNTSVILLE     CLOUDY    60  58  92 SW8       30.14S
CONROE         FOG       50  49  96 CALM      30.16S VSB 1/2
HOUSTON BUSH   PTCLDY    53  53 100 CALM      30.15F FOG
HOUSTON HOBBY  FOG       54  54 100 S3        30.15F VSB 1/2
PERLAND        FOG       52  50  93 SE3       30.17F VSB 1/2
WHARTON        FOG       53  53  99 S5        30.16S VSB 1/2
$$

THE UPPER TEXAS COAST

CITY           SKY/WX    TMP DP  RH WIND       PRES   REMARKS
ORANGE         FOG       54  54 100 CALM      30.18F VSB 1/4
PORT ARTHUR    CLEAR     54  54 100 S7        30.16F FOG
GALVESTON      PTCLDY    55  55 100 S6        30.17F
ANGLETON       FOG       53  53 100 S3        30.16S VSB 1/4
BAY CITY       FOG       54  54 100 S3        30.16S VSB 1/2
$$

TEXAS COASTAL BEND, RIO GRANDE PLAINS DEEP SOUTH TEXAS

CITY           SKY/WX    TMP DP  RH WIND       PRES   REMARKS
VICTORIA       FOG       53  52  96 CALM      30.15F VSB 1/4
BEEVILLE       FOG       52  52 100 CALM      30.13F VSB<1/4
ROCKPORT       CLEAR     61  59  93 S5        30.14F
PORT ARANSAS   SUNNY     60  60 100 S6        30.14S
PORT LAVACA    FOG       54  54 100 S3        30.15F VSB 1/2
CORPUS CHRISTI PTCLDY    55  54  96 SE8       30.13F
KINGSVILLE NAS FOG       52  52 100 E5        30.13F VSB 1
COTULLA        CLEAR     56  54  93 SE7       30.11S
LAREDO         NOT AVBL
BROWNSVILLE    CLEAR     59  58  96 SE6       30.13F
PORT ISABEL    CLEAR     59  57  93 SE7       30.13F
HEBBRONVILLE   HVY RAIN  58  58  98 SE8       30.12S VSB 1/2
MCALLEN        CLEAR     59  58  96 SE9       30.12S FOG
WESLACO        FOG       61  59  94 SE3       30.13S VSB 1/4
FALFURRIAS     CLOUDY    54  53  95 CALM      30.12F VSB 3/4
EDINBURG       CLOUDY    64  62  92 SE7       30.12S FOG
$$


USA.gov is the U.S. government's official web portal to all federal, state and local government web resources and services.